Egegik, AK

11:09 AM AKDT on October 01, 2016 (GMT -0800)
Egegik

Weather History for PAII - October, 2012

Change the Weather History Date:

Wednesday, October 3, 2012

  Actual Average (PAKN) Record (PAKN)
Temperature  
Mean Temperature 48 °F 40 °F  
Max Temperature 51 °F 48 °F 58 °F (2012)
Min Temperature 44 °F 32 °F 16 °F (1978)
Degree Days  
Heating Degree Days 18 25  
Month to date heating degree days 74  
Since 1 July heating degree days 1209  
Cooling Degree Days 0    
Month to date cooling degree days  
Year to date cooling degree days  
Moisture  
Dew Point 44 °F    
Average Humidity 86    
Maximum Humidity 93    
Minimum Humidity 76    
Precipitation  
Precipitation 0.00 in 0.09 in 0.89 in (1952)
Month to date precipitation 0.26  
Year to date precipitation 15.05  
Snow  
Snow 0.00 in 0.00 in 0.90 in (1992)
Month to date snowfall 0.0  
Since 1 July snowfall 0.1  
Since 1 September snowfall 0.1  
Snow Depth -    
Sea Level Pressure  
Sea Level Pressure 29.76 in    
Wind  
Wind Speed 28 mph (ESE)    
Max Wind Speed 39 mph    
Max Gust Speed 54 mph    
Visibility 10 miles    
Events      
T = Trace of Precipitation, MM = Missing Value Source: NWS Daily Summary

Daily Weather History Graph

Daily Weather History Graph

Search for Another Location

Airport or City:

Trip Planner

Search our weather history database for the weather conditions in past years. The results will help you decide how hot, cold, wet, or windy it might be!

Date:

Astronomy

Oct. 03, 2012 Rise Set
Actual Time 8:39 AM AKDT 7:55 PM AKDT
Civil Twilight 8:00 AM AKDT 8:34 PM AKDT
Nautical Twilight 7:14 AM AKDT 9:20 PM AKDT
Astronomical Twilight 6:26 AM AKDT 10:07 PM AKDT
Moon 8:56 PM AKDT (10/3) 1:10 PM AKDT (10/3)
Length of Visible Light 12h 34m
Length of Day
11h 15m
Waning Gibbous, 88% of the Moon is Illuminated
Oct 3
Waning Gibbous
Oct 7
Last Quarter
Oct 15
New
Oct 21
First Quarter
Oct 29
Full

Hourly Weather History & Observations

Time (AKDT) Temp. Windchill Dew Point Humidity Pressure Visibility Wind Dir Wind Speed Gust Speed Precip Events Conditions
12:16 AM 44.6 °F 35.5 °F 41.0 °F 87% 29.98 in 10.0 mi SE 25.3 mph 32.2 mph N/A   Partly Cloudy
12:36 AM 44.6 °F 35.1 °F 41.0 °F 87% 29.97 in 10.0 mi SE 27.6 mph 32.2 mph N/A   Clear
12:56 AM 44.6 °F 35.1 °F 41.0 °F 87% 29.97 in 10.0 mi SE 27.6 mph 34.5 mph N/A   Clear
1:16 AM 44.6 °F 35.7 °F 42.8 °F 93% 29.98 in 10.0 mi SE 24.2 mph 31.1 mph N/A   Clear
1:36 AM 44.6 °F 35.5 °F 42.8 °F 93% 29.99 in 10.0 mi SE 25.3 mph 34.5 mph N/A   Clear
1:56 AM 46.4 °F 37.7 °F 42.8 °F 87% 29.98 in 10.0 mi ESE 26.5 mph 33.4 mph N/A   Clear
2:16 AM 46.4 °F 37.5 °F 42.8 °F 87% 29.98 in 10.0 mi SE 27.6 mph 35.7 mph N/A   Clear
2:36 AM 46.4 °F 37.0 °F 42.8 °F 87% 29.98 in 10.0 mi SE 31.1 mph 39.1 mph N/A   Clear
2:56 AM 46.4 °F 37.5 °F 42.8 °F 87% 29.98 in 10.0 mi ESE 27.6 mph 36.8 mph N/A   Clear
3:16 AM 44.6 °F 35.1 °F 42.8 °F 93% 29.97 in 10.0 mi ESE 27.6 mph 35.7 mph N/A   Scattered Clouds
3:36 AM 44.6 °F 35.7 °F 42.8 °F 93% 29.98 in 10.0 mi ESE 24.2 mph 29.9 mph N/A   Partly Cloudy
3:56 AM 44.6 °F 36.4 °F 42.8 °F 93% 29.99 in 10.0 mi ESE 20.7 mph 28.8 mph N/A   Clear
4:16 AM 44.6 °F 36.6 °F 42.8 °F 93% 29.98 in 10.0 mi ESE 19.6 mph 27.6 mph N/A   Partly Cloudy
4:36 AM 44.6 °F 36.4 °F 42.8 °F 93% 29.98 in 10.0 mi ESE 20.7 mph 27.6 mph N/A   Mostly Cloudy
4:56 AM 44.6 °F 36.4 °F 42.8 °F 93% 29.97 in 10.0 mi ESE 20.7 mph 26.5 mph N/A   Mostly Cloudy
5:16 AM 46.4 °F 38.3 °F 42.8 °F 87% 29.95 in 10.0 mi ESE 23.0 mph 31.1 mph N/A   Partly Cloudy
5:36 AM 46.4 °F 38.5 °F 42.8 °F 87% 29.95 in 10.0 mi ESE 21.9 mph 31.1 mph N/A   Clear
5:56 AM 46.4 °F 38.1 °F 42.8 °F 87% 29.94 in 10.0 mi ESE 24.2 mph 32.2 mph N/A   Clear
6:16 AM 46.4 °F 37.9 °F 42.8 °F 87% 29.93 in 10.0 mi ESE 25.3 mph 33.4 mph N/A   Clear
6:36 AM 46.4 °F 37.7 °F 41.0 °F 81% 29.93 in 10.0 mi SE 26.5 mph 32.2 mph N/A   Clear
6:56 AM 46.4 °F 37.5 °F 41.0 °F 81% 29.92 in 10.0 mi SE 27.6 mph 38.0 mph N/A   Clear
7:16 AM 46.4 °F 37.7 °F 41.0 °F 81% 29.90 in 10.0 mi ESE 26.5 mph 34.5 mph N/A   Clear
7:36 AM 46.4 °F 37.4 °F 41.0 °F 81% 29.89 in 10.0 mi SE 28.8 mph 36.8 mph N/A   Clear
7:56 AM 46.4 °F 37.0 °F 41.0 °F 81% 29.87 in 10.0 mi ESE 31.1 mph 38.0 mph N/A   Clear
8:16 AM 46.4 °F 37.5 °F 41.0 °F 81% 29.86 in 10.0 mi ESE 27.6 mph 35.7 mph N/A   Clear
8:36 AM 46.4 °F 37.7 °F 39.2 °F 76% 29.85 in 10.0 mi ESE 26.5 mph 35.7 mph N/A   Clear
8:56 AM 46.4 °F 37.5 °F 41.0 °F 81% 29.84 in 10.0 mi ESE 27.6 mph 36.8 mph N/A   Mostly Cloudy
9:16 AM 46.4 °F 37.5 °F 41.0 °F 81% 29.83 in 10.0 mi ESE 27.6 mph 35.7 mph N/A   Overcast
9:36 AM 46.4 °F 37.2 °F 41.0 °F 81% 29.81 in 10.0 mi ESE 29.9 mph 39.1 mph N/A   Overcast
9:56 AM 46.4 °F 37.7 °F 42.8 °F 87% 29.81 in 10.0 mi ESE 26.5 mph 39.1 mph N/A   Overcast
10:16 AM 46.4 °F 37.4 °F 42.8 °F 87% 29.80 in 9.0 mi ESE 28.8 mph 36.8 mph N/A   Overcast
10:36 AM 46.4 °F 37.9 °F 42.8 °F 87% 29.80 in 9.0 mi ESE 25.3 mph 35.7 mph N/A   Overcast
10:56 AM 46.4 °F 37.4 °F 42.8 °F 87% 29.79 in 10.0 mi ESE 28.8 mph 36.8 mph N/A   Overcast
11:16 AM 46.4 °F 37.0 °F 42.8 °F 87% 29.79 in 10.0 mi ESE 31.1 mph 40.3 mph N/A   Overcast
11:36 AM 46.4 °F 37.4 °F 42.8 °F 87% 29.79 in 9.0 mi ESE 28.8 mph 39.1 mph N/A   Overcast
11:56 AM 46.4 °F 37.2 °F 42.8 °F 87% 29.76 in 10.0 mi ESE 29.9 mph 41.4 mph N/A   Overcast
12:16 PM 46.4 °F 36.3 °F 42.8 °F 87% 29.72 in 5.0 mi ESE 36.8 mph 54.1 mph N/A   Overcast
12:36 PM 46.4 °F 37.0 °F 42.8 °F 87% 29.72 in 7.0 mi ESE 31.1 mph 41.4 mph N/A   Overcast
12:56 PM 48.2 °F - 44.6 °F 87% 29.72 in 10.0 mi ESE 28.8 mph 47.2 mph N/A   Overcast
1:16 PM 48.2 °F - 44.6 °F 87% 29.70 in 10.0 mi ESE 34.5 mph 42.6 mph N/A   Mostly Cloudy
1:36 PM 48.2 °F - 44.6 °F 87% 29.69 in 10.0 mi ESE 32.2 mph 43.7 mph N/A   Overcast
1:56 PM 48.2 °F - 44.6 °F 87% 29.69 in 10.0 mi ESE 32.2 mph 42.6 mph N/A   Mostly Cloudy
2:16 PM 48.2 °F - 44.6 °F 87% 29.68 in 10.0 mi ESE 29.9 mph 40.3 mph N/A   Overcast
2:36 PM 48.2 °F - 44.6 °F 87% 29.67 in 10.0 mi ESE 33.4 mph 41.4 mph N/A   Overcast
2:56 PM 48.2 °F - 44.6 °F 87% 29.66 in 10.0 mi ESE 28.8 mph 39.1 mph N/A   Overcast
3:16 PM 51.8 °F - 46.4 °F 82% 29.67 in 10.0 mi ESE 33.4 mph 42.6 mph N/A   Scattered Clouds
3:36 PM 51.8 °F - 46.4 °F 82% 29.66 in 10.0 mi ESE 32.2 mph 44.9 mph N/A   Mostly Cloudy
3:56 PM 51.8 °F - 46.4 °F 82% 29.65 in 10.0 mi ESE 31.1 mph 43.7 mph N/A   Mostly Cloudy
4:16 PM 51.8 °F - 46.4 °F 82% 29.63 in 10.0 mi ESE 35.7 mph 44.9 mph N/A   Scattered Clouds
4:36 PM 51.8 °F - 46.4 °F 82% 29.63 in 10.0 mi ESE 36.8 mph 48.3 mph N/A   Clear
4:56 PM 51.8 °F - 46.4 °F 82% 29.60 in 10.0 mi ESE 36.8 mph 46.0 mph N/A   Mostly Cloudy
5:16 PM 51.8 °F - 46.4 °F 82% 29.61 in 10.0 mi ESE 33.4 mph 47.2 mph N/A   Overcast
5:36 PM 51.8 °F - 46.4 °F 82% 29.60 in 10.0 mi ESE 34.5 mph 47.2 mph N/A   Overcast
5:56 PM 50.0 °F - 46.4 °F 87% 29.59 in 10.0 mi ESE 38.0 mph 49.5 mph N/A   Mostly Cloudy
6:16 PM 50.0 °F - 46.4 °F 87% 29.59 in 10.0 mi ESE 35.7 mph 46.0 mph N/A   Overcast
6:36 PM 50.0 °F - 46.4 °F 87% 29.59 in 10.0 mi ESE 34.5 mph 43.7 mph N/A   Scattered Clouds
6:56 PM 50.0 °F - 46.4 °F 87% 29.59 in 10.0 mi ESE 38.0 mph 47.2 mph N/A   Mostly Cloudy
7:16 PM 50.0 °F - 46.4 °F 87% 29.57 in 10.0 mi ESE 33.4 mph 47.2 mph N/A   Mostly Cloudy
7:36 PM 50.0 °F - 46.4 °F 87% 29.56 in 10.0 mi ESE 36.8 mph 47.2 mph N/A   Scattered Clouds
7:56 PM 50.0 °F - 44.6 °F 82% 29.57 in 10.0 mi ESE 29.9 mph 42.6 mph N/A   Mostly Cloudy
8:16 PM 50.0 °F - 46.4 °F 87% 29.57 in 10.0 mi ESE 32.2 mph 43.7 mph N/A   Mostly Cloudy
8:36 PM 48.2 °F - 44.6 °F 87% 29.57 in 10.0 mi ESE 28.8 mph 41.4 mph N/A   Mostly Cloudy
8:56 PM 50.0 °F - 46.4 °F 87% 29.54 in 10.0 mi SE 35.7 mph 44.9 mph N/A   Scattered Clouds
9:16 PM 50.0 °F - 46.4 °F 87% 29.54 in 10.0 mi ESE 34.5 mph 48.3 mph N/A   Partly Cloudy
9:36 PM 50.0 °F - 46.4 °F 87% 29.55 in 10.0 mi ESE 39.1 mph 48.3 mph N/A   Scattered Clouds
9:56 PM 48.2 °F - 46.4 °F 93% 29.56 in 10.0 mi ESE 35.7 mph 46.0 mph N/A   Partly Cloudy
10:16 PM 48.2 °F - 46.4 °F 93% 29.55 in 10.0 mi ESE 33.4 mph 46.0 mph N/A   Mostly Cloudy
10:36 PM 48.2 °F - 44.6 °F 87% 29.55 in 10.0 mi ESE 33.4 mph 46.0 mph N/A   Overcast
10:56 PM 48.2 °F - 44.6 °F 87% 29.55 in 10.0 mi ESE 33.4 mph 43.7 mph N/A   Overcast
11:16 PM 48.2 °F - 46.4 °F 93% 29.52 in 10.0 mi ESE 29.9 mph 43.7 mph N/A   Overcast
11:36 PM 50.0 °F - 46.4 °F 87% 29.55 in 10.0 mi SE 23.0 mph 40.3 mph N/A   Overcast
11:56 PM 51.8 °F - 46.4 °F 82% 29.56 in 10.0 mi SE 31.1 mph 44.9 mph N/A   Overcast